Flag for Canada Weather past 2 weeks in Kirkland Lake, Ontario, Canada

Now
57 °F

Sunny.


Feels Like: 57 °F
Forecast: 52 / 72 °F
Wind: 5 mph from Northwest

Location: Earlton

Current Time: Jul 23, 2014 at 10:06:49 PM

Latest Report: Jul 23, 2014 at 9:00 PM


Visibility: 9 mi

Pressure: 30.05 "Hg

Humidity: 72%

Dew point: 48 °F

Location of Kirkland LakeLocation

Historic Weather in Kirkland Lake — Graph

°F

Kirkland Lake temperature yesterday

Maximum temperature yesterday: 81 °F (at 12:00 PM)
Minimum temperature yesterday: 66 °F (at 5:00 AM)
Average temperature yesterday: 72 °F

Past Weeks' High & Low Weather Summary

 TemperatureHumidityPressure
High81 °F (Jul 18, 5:00 PM)100% (Jul 13, 6:00 AM)30.20 "Hg (Jul 13, 6:00 AM)
Low46 °F (Jul 10, 5:00 AM)34% (Jul 18, 4:00 PM)29.46 "Hg (Jul 8, 8:00 PM)
Average63 °F75%29.93 "Hg
* Reported Jul 8 8:00 PM — Jul 23 8:00 PM, Kirkland Lake, Weather by CustomWeather, © 2014

Note: Actual official high and low records may vary slightly from our data, if they occured in-between our weather recording intervals... More about our weather records

Advertising

Kirkland Lake weather history for previous 24 hours

 ConditionsComfort  
Time TempWeatherWind HumidityBarometerVisibility
8:00 PM
Jul 23
61 °FScattered clouds.8 mph63%30.05 "Hg9 mi
7:00 PM61 °FPartly sunny.13 mph63%30.05 "Hg9 mi
6:00 PM63 °FOvercast.9 mph59%30.06 "Hg9 mi
5:00 PM61 °FMore clouds than sun.16 mph59%30.07 "Hg9 mi
4:00 PM63 °FOvercast.17 mph59%30.07 "Hg9 mi
3:00 PM66 °FPartly sunny.13 mph52%30.06 "Hg9 mi
2:00 PM63 °FOvercast.20 mph59%30.06 "Hg9 mi
1:00 PM64 °FScattered clouds.21 mph52%30.04 "Hg9 mi
12:00 PM63 °FSunny.16 mph56%30.04 "Hg9 mi
11:00 AM61 °FSunny.13 mph63%30.04 "Hg9 mi
10:00 AM59 °FSunny.16 mph68%30.05 "Hg9 mi
9:00 AM57 °FPassing clouds.20 mph72%30.04 "Hg9 mi
8:00 AM54 °FPartly sunny.14 mph82%30.03 "Hg9 mi
7:00 AM54 °FPartly sunny.16 mph82%29.97 "Hg9 mi
6:00 AM54 °FOvercast.18 mph88%29.94 "Hg9 mi
5:00 AM54 °FOvercast.18 mph88%29.91 "Hg9 mi
4:00 AM54 °FOvercast.15 mph88%29.89 "Hg9 mi
1:00 AM59 °FOvercast.21 mph88%29.79 "Hg9 mi
12:00 AM72 °FMostly cloudy.13 mph78%29.72 "Hg9 mi
11:00 PM
Jul 22
72 °FMostly cloudy.14 mph78%29.71 "Hg9 mi
10:00 PM72 °FMostly cloudy.17 mph83%29.70 "Hg9 mi
Weather by CustomWeather, © 2014

See weather overviewHow to use our weather pages